This is the latest recevied weather packets stored in our database for station/object K0QED. If no packets are shown the sender has not sent any weather packets the latest 10 day(s).
| Time | Temp. | Humidity | Pressure | Rain* | Wind** | Luminosity | Snow |
|---|---|---|---|---|---|---|---|
| 1777223084 | 8.33° C | 70% | 1008.9 hPa | 0 mm | - | 661 W/m² | - |
| 1777222780 | 7.78° C | 72% | 1008.9 hPa | 0 mm | - | 648 W/m² | - |
| 1777222479 | 7.22° C | 75% | 1008.7 hPa | 0 mm | - | 654 W/m² | - |
| 1777222176 | 6.67° C | 77% | 1008.7 hPa | 0 mm | - | 649 W/m² | - |
| 1777221874 | 6.11° C | 79% | 1009 hPa | 0 mm | - | 723 W/m² | - |
| 1777221574 | 5.56° C | 80% | 1009 hPa | 0 mm | - | 625 W/m² | - |
| 1777221272 | 5.56° C | 82% | 1009.1 hPa | 0 mm | - | 343 W/m² | - |
| 1777220967 | 5° C | 83% | 1008.6 hPa | 0 mm | - | 745 W/m² | - |
| 1777220663 | 4.44° C | 86% | 1008.9 hPa | 0 mm | - | 659 W/m² | - |
| 1777220360 | 3.89° C | 89% | 1009.1 hPa | 0 mm | - | 701 W/m² | - |
| 1777220060 | 3.33° C | 94% | 1009 hPa | 0 mm | - | 710 W/m² | - |
| 1777219757 | 2.78° C | 97% | 1009 hPa | 0 mm | - | 656 W/m² | - |
| 1777219454 | 2.22° C | 98% | 1009.2 hPa | 0 mm | - | 421 W/m² | - |
| 1777219150 | 2.22° C | 99% | 1009.2 hPa | 0 mm | - | 218 W/m² | - |
| 1777218846 | 1.67° C | 99% | 1009.2 hPa | 0 mm | - | 248 W/m² | - |
| 1777218542 | 2.22° C | 99% | 1009.5 hPa | 0 mm | - | 185 W/m² | - |
| 1777218236 | 1.67° C | 99% | 1009.6 hPa | 0 mm | - | 210 W/m² | - |
| 1777217935 | 1.67° C | 99% | 1009.4 hPa | 0 mm | - | 193 W/m² | - |
| 1777217629 | 1.11° C | 99% | 1009.6 hPa | 0 mm | - | 142 W/m² | - |
| 1777217325 | 1.11° C | 99% | 1009.4 hPa | 0 mm | - | 144 W/m² | - |
| 1777217021 | 1.11° C | 99% | 1009.4 hPa | 0 mm | - | 164 W/m² | - |
| 1777216719 | 0.56° C | 99% | 1009.6 hPa | 0 mm | - | 170 W/m² | - |
| 1777216414 | 0.56° C | 99% | 1009.4 hPa | 0 mm | - | 220 W/m² | - |
| 1777216113 | 0.56° C | 99% | 1010.1 hPa | 0 mm | - | 184 W/m² | - |
| 1777215809 | 0° C | 99% | 1009.7 hPa | 0 mm | - | 100 W/m² | - |
* Rain latest hour (hover to see other rain measurements)
** Current wind speed in m/s (hover to see current wind gust speed)